Date String (YYYY-MM-DD hh:mm:ss) UTC,Instrument flags,Ambient pressure (hPa),Sample flow (lpm),Bypass flow (lpm),Sample temperature (°C),Ambient temperature (°C),ASC tube jacket temperature (°C),LED temperature (°C),Box temperature (°C),Sample RH (%),Span deviation,Mass concentration (μg/m³),Mass concentration (μg/m³),Mass concentration (μg/m³)
DateTimeUTC,F1_M11,P_M11,Q1_M11,Q2_M11,T1_M11,T2_M11,T3_M11,T4_M11,T5_M11,U1_M11,ZSPAN_M11,X0_M11,X2_M11,X1_M11
2023-02-17 05:00:00,,0828.0,5.02,0.00,22.3,20.4,00.0,31.3,23.8,06.3,0000.0,0008.95,0003.65,0003.17
2023-02-17 05:01:00,,0828.0,5.01,0.00,22.3,20.5,00.0,31.3,23.9,06.3,0000.0,0008.94,0003.65,0003.17
2023-02-17 05:02:00,,0828.0,4.94,0.00,22.4,21.6,00.0,31.2,24.1,06.3,0000.0,0008.95,0003.67,0003.18
2023-02-17 05:03:00,,0828.0,5.01,0.00,22.5,22.6,00.0,31.2,24.3,06.3,0000.0,0008.93,0003.67,0003.20
2023-02-17 05:04:00,,0828.1,5.00,0.00,22.6,23.3,00.0,31.2,24.6,06.2,0000.0,0008.76,0003.68,0003.20
2023-02-17 05:05:00,,0828.1,5.10,0.00,22.6,22.8,00.0,31.3,24.5,06.2,0000.0,0008.69,0003.72,0003.22
2023-02-17 05:06:00,,0828.1,5.00,0.00,22.6,22.2,00.0,31.3,24.4,06.2,0000.0,0008.00,0003.71,0003.23
2023-02-17 05:07:00,,0828.1,4.99,0.00,22.6,21.7,00.0,31.3,24.2,06.2,0000.0,0007.66,0003.71,0003.24
2023-02-17 05:08:00,,0828.1,5.00,0.00,22.5,21.3,00.0,31.3,24.1,06.2,0000.0,0006.52,0003.71,0003.24
2023-02-17 05:09:00,,0828.1,4.99,0.00,22.5,20.9,00.0,31.3,24.1,06.3,0000.0,0006.35,0003.73,0003.25
2023-02-17 05:10:00,,0828.1,5.00,0.00,22.4,20.7,00.0,31.3,24.1,06.2,0000.0,0006.51,0003.77,0003.26
2023-02-17 05:11:00,,0828.1,4.99,0.00,22.4,20.5,00.0,31.3,24.0,06.2,0000.0,0006.63,0003.80,0003.27
2023-02-17 05:12:00,,0828.1,5.01,0.00,22.4,20.4,00.0,31.3,23.9,06.2,0000.0,0006.74,0003.79,0003.26
2023-02-17 05:13:00,,0828.1,4.99,0.00,22.3,20.3,00.0,31.3,23.9,06.3,0000.0,0006.78,0003.81,0003.27
2023-02-17 05:14:00,,0828.1,4.98,0.00,22.4,21.3,00.0,31.2,24.1,06.3,0000.0,0006.91,0003.84,0003.27
2023-02-17 05:15:00,,0828.1,4.95,0.00,22.5,22.4,00.0,31.2,24.3,06.3,0000.0,0007.23,0003.83,0003.28
2023-02-17 05:16:00,,0828.1,5.00,0.00,22.6,23.2,00.0,31.2,24.6,06.2,0000.0,0007.92,0003.80,0003.27
2023-02-17 05:17:00,,0828.1,5.01,0.00,22.7,23.0,00.0,31.2,24.6,06.2,0000.0,0007.87,0003.77,0003.26
2023-02-17 05:18:00,,0828.1,4.99,0.00,22.7,22.4,00.0,31.3,24.5,06.2,0000.0,0007.95,0003.78,0003.25
2023-02-17 05:19:00,,0828.1,5.01,0.00,22.6,21.8,00.0,31.3,24.3,06.2,0000.0,0007.95,0003.77,0003.24
2023-02-17 05:20:00,,0828.1,5.00,0.00,22.6,21.3,00.0,31.4,24.2,06.2,0000.0,0007.85,0003.73,0003.22
2023-02-17 05:21:00,,0828.1,5.00,0.00,22.5,20.9,00.0,31.4,24.1,06.1,0000.0,0008.04,0003.72,0003.19
2023-02-17 05:22:00,,0828.1,5.00,0.00,22.5,20.7,00.0,31.3,24.0,06.1,0000.0,0008.54,0003.70,0003.18
2023-02-17 05:23:00,,0828.1,4.99,0.00,22.4,20.5,00.0,31.3,23.9,06.1,0000.0,0008.53,0003.70,0003.17
2023-02-17 05:24:00,,0828.1,5.02,0.00,22.4,20.3,00.0,31.3,23.9,06.1,0000.0,0008.62,0003.68,0003.15
2023-02-17 05:25:00,,0828.1,5.00,0.00,22.3,20.2,00.0,31.3,23.8,06.1,0000.0,0009.07,0003.64,0003.12
2023-02-17 05:26:00,,0828.1,5.02,0.00,22.3,20.7,00.0,31.2,23.9,06.1,0000.0,0008.88,0003.61,0003.09
2023-02-17 05:27:00,,0828.1,4.93,0.00,22.4,21.9,00.0,31.2,24.2,06.1,0000.0,0008.69,0003.59,0003.04
2023-02-17 05:28:00,,0828.1,4.98,0.00,22.5,22.9,00.0,31.2,24.5,06.1,0000.0,0008.62,0003.60,0003.03
2023-02-17 05:29:00,,0828.1,5.04,0.00,22.6,23.1,00.0,31.2,24.6,06.0,0000.0,0008.61,0003.61,0003.02
2023-02-17 05:30:00,,0828.1,4.97,0.00,22.6,22.5,00.0,31.3,24.4,06.0,0000.0,0008.60,0003.60,0003.01
2023-02-17 05:31:00,,0828.1,5.01,0.00,22.6,21.9,00.0,31.3,24.3,06.0,0000.0,0009.32,0003.60,0003.02
2023-02-17 05:32:00,,0828.1,5.00,0.00,22.5,21.5,00.0,31.3,24.2,06.0,0000.0,0009.22,0003.58,0003.03
2023-02-17 05:33:00,,0828.1,5.01,0.00,22.5,21.1,00.0,31.3,24.1,06.0,0000.0,0008.61,0003.56,0003.00
2023-02-17 05:34:00,,0828.1,5.03,0.00,22.5,20.8,00.0,31.3,24.1,06.0,0000.0,0008.51,0003.55,0003.00
2023-02-17 05:35:00,,0828.1,4.99,0.00,22.4,20.6,00.0,31.3,24.0,06.0,0000.0,0008.46,0003.55,0003.01
2023-02-17 05:36:00,,0828.1,5.01,0.00,22.4,20.4,00.0,31.3,23.9,06.1,0000.0,0007.98,0003.56,0003.01
2023-02-17 05:37:00,,0828.1,4.95,0.00,22.3,20.4,00.0,31.3,23.9,06.0,0000.0,0008.08,0003.59,0003.01
2023-02-17 05:38:00,,0828.1,4.97,0.00,22.4,21.3,00.0,31.2,24.1,06.0,0000.0,0007.73,0003.63,0003.02
2023-02-17 05:39:00,,0828.1,5.00,0.00,22.5,22.4,00.0,31.2,24.3,06.0,0000.0,0007.75,0003.64,0003.01
2023-02-17 05:40:00,,0828.1,4.90,0.00,22.6,22.9,00.0,31.2,24.5,06.0,0000.0,0007.66,0003.60,0003.02
2023-02-17 05:41:00,,0828.1,4.98,0.00,22.6,22.4,00.0,31.3,24.4,06.0,0000.0,0007.61,0003.58,0003.02
2023-02-17 05:42:00,,0828.0,5.00,0.00,22.6,21.8,00.0,31.3,24.3,06.1,0000.0,0006.82,0003.60,0003.01
2023-02-17 05:43:00,,0828.0,5.01,0.00,22.5,21.3,00.0,31.3,24.1,06.1,0000.0,0007.31,0003.60,0003.02
2023-02-17 05:44:00,,0828.1,5.00,0.00,22.5,21.0,00.0,31.3,24.1,06.2,0000.0,0008.28,0003.60,0003.03
2023-02-17 05:45:00,,0828.0,4.98,0.00,22.4,20.7,00.0,31.3,23.9,06.2,0000.0,0008.43,0003.58,0003.01
2023-02-17 05:46:00,,0828.1,4.99,0.00,22.4,20.5,00.0,31.3,23.9,06.3,0000.0,0008.38,0003.55,0002.99
2023-02-17 05:47:00,,0828.0,4.99,0.00,22.3,20.4,00.0,31.3,23.8,06.4,0000.0,0008.25,0003.52,0002.99
2023-02-17 05:48:00,,0828.1,5.02,0.00,22.3,21.1,00.0,31.2,24.0,06.4,0000.0,0008.20,0003.53,0003.01
2023-02-17 05:49:00,,0828.1,5.01,0.00,22.4,22.3,00.0,31.2,24.3,06.4,0000.0,0008.11,0003.50,0003.00
2023-02-17 05:50:00,,0828.0,5.04,0.00,22.6,23.2,00.0,31.2,24.5,06.3,0000.0,0008.01,0003.46,0003.01
2023-02-17 05:51:00,,0828.0,5.03,0.00,22.7,23.2,00.0,31.2,24.6,06.2,0000.0,0007.97,0003.44,0002.99
2023-02-17 05:52:00,,0828.0,5.01,0.00,22.6,22.5,00.0,31.3,24.4,06.1,0000.0,0008.08,0003.47,0003.01
2023-02-17 05:53:00,,0828.0,5.02,0.00,22.6,22.0,00.0,31.3,24.3,06.2,0000.0,0008.06,0003.47,0003.02
2023-02-17 05:54:00,,0828.0,4.99,0.00,22.6,21.4,00.0,31.3,24.2,06.3,0000.0,0007.71,0003.47,0003.00
2023-02-17 05:55:00,,0828.0,5.01,0.00,22.5,21.0,00.0,31.4,24.1,06.3,0000.0,0006.51,0003.51,0003.00
2023-02-17 05:56:00,,0828.0,5.01,0.00,22.5,20.8,00.0,31.3,24.0,06.3,0000.0,0006.37,0003.53,0003.03
2023-02-17 05:57:00,,0828.0,4.99,0.00,22.4,20.5,00.0,31.3,24.0,06.3,0000.0,0006.53,0003.55,0003.07
2023-02-17 05:58:00,,0827.9,5.05,0.00,22.4,20.4,00.0,31.3,23.9,06.3,0000.0,0006.76,0003.55,0003.06
2023-02-17 05:59:00,,0828.0,5.01,0.00,22.3,20.4,00.0,31.3,23.9,06.4,0000.0,0006.88,0003.54,0003.07
